Tracking 35237 objects as of 5-Sep-2026
HD Live streaming from Space Station
objects crossing your sky now

COSMOS 120


COSMOS 120 is no longer on orbit


NORAD ID: 2196
Int'l Code: 1966-050A
Launch date: June 8, 1966
Source: Commonwealth of Independent States (former USSR) (CIS)
Launch site: TYURATAM MISSILE AND SPACE COMPLEX (TTMTR)
Decay date: 1966-06-16
Your satellite tracking list
Your tracking list is empty




NASA's NSSDC Master Catalog

Two Line Element Set (TLE):
1 02196U 66050  A 66162.18030183  .00144683 +57358-4 +00000-0 0  9998
2 02196 051.7923 057.3839 0063915 035.7058 324.7751 16.11320283000448
Source of the keplerian elements: AFSPC